Regional Weather Roundup
Issued by NWS

Home | Current Version | Previous Version | Text Only | Print | Product List | Glossary Off
Versions: 1 2 3 4 5 6 7 8 9 10 11 12 13 14 15 16 17 18 19 20 21 22 23 24 25 26 27 28 29 30 31 32 33 34 35 36 37 38 39 40 41 42 43 44 45 46 47 48 49 50

000
ASUS43 KLOT 300808
RWRIL

ILLINOIS REGIONAL WEATHER ROUNDUP
NATIONAL WEATHER SERVICE CHICAGO/ROMEOVILLE IL
300 AM CDT MON MAR 30 2015

NOTE: "FAIR" INDICATES FEW OR NO CLOUDS BELOW 12,000 FEET WITH NO
SIGNIFICANT WEATHER AND/OR OBSTRUCTIONS TO VISIBILITY.

* THESE STATIONS ARE NOT UNDER NWS QUALITY CONTROL. THEY ALSO MAY NOT
  REPORT WEATHER SUCH AS PRECIPITATION OR FOG.

ILZ001-002-007-009-015-016-024-300900-
NORTHWEST ILLINOIS

CITY           SKY/WX    TMP DP  RH WIND       PRES   REMARKS
MOLINE         CLEAR     37  28  70 W8        30.05R WCI  31
STERLING*      CLEAR     32  27  80 NW8       30.02S WCI  25
SAVANNA*       CLEAR     40  30  66 W9        30.02S
$$

ILZ003-004-008-010-011-017-018-300900-
NORTH CENTRAL ILLINOIS

CITY           SKY/WX    TMP DP  RH WIND       PRES   REMARKS
ROCKFORD       PTCLDY    37  27  67 W8        30.00R WCI  31
FREEPORT*      CLEAR     37  28  72 W7        30.01R WCI  31
ROCHELLE*      CLEAR     33  28  83 W9        30.00S WCI  25
DE KALB*       CLEAR     34  28  79 W10       29.99R WCI  26
PERU*          CLEAR     37  31  78 W12       30.03R WCI  30
$$

ILZ005-006-012>014-019>023-300900-
NORTHEAST ILLINOIS

CITY           SKY/WX    TMP DP  RH WIND       PRES   REMARKS
CHICAGO-OHARE  PTCLDY    37  29  72 W7        29.95S WCI  32
CHICAGO-MIDWAY CLEAR     39  30  70 W5        29.97S
AURORA         CLEAR     32  27  81 W8        29.98S WCI  25
LANSING*       CLEAR     38  29  69 W6        29.98R WCI  33
JOLIET*        CLEAR     37  31  77 W6        29.99S WCI  33
WAUKEGAN       PTCLDY    37  31  78 VRB5      29.94R WCI  33
DUPAGE AIRPORT CLEAR     37  29  72 W9        29.97R WCI  30
KANKAKEE*      CLEAR     35  32  89 W6        30.01R WCI  30
WHEELING       CLEAR     38  30  73 W6        29.97R WCI  33
MORRIS*        CLEAR     34  29  83 W10       29.99R WCI  26
ROMEOVILLE*    CLEAR     36  29  75 NW8       29.98S WCI  30
NORTHERLY ISL    N/A     42  31  65 W7          N/A
$$

LMZ740>746-300900-
SOUTHERN LAKE MICHIGAN

STATION/POSITION SKY/WX   TEMP    WIND        PRES    VSBY  WAVE
                          AIR SEA DIR/SP/G                  HT/PER
                          (F)     (DEG/KT/KT) (MB)    (MI)  (FT/S)
HARRISON CRIB              43     270/ 13/ 16   N/A
BURNHAM HARBOR             42     280/  6/ 10   N/A
CALUMET HARBOR             41     250/  3/  5 1013.6R
BURNS HARBOR               40     240/  9/ 10 1014.9S
MICHIGAN CITY              39     230/ 13/ 14   N/A
$$

ILZ025>027-034>036-040-047-049-050-058-095>099-300900-
WEST-CENTRAL ILLINOIS

CITY           SKY/WX    TMP DP  RH WIND       PRES   REMARKS
QUINCY         CLEAR     40  30  67 NW7       30.11S
GALESBURG*     CLEAR     35  29  80 W7        30.07S WCI  29
MACOMB*        CLEAR     36  30  78 W7        30.11R WCI  30
JACKSONVILLE*  CLEAR     39  32  75 W6        30.10S WCI  35
PITTSFIELD*    CLEAR     41  34  77 W6        30.12S
$$

ILZ028>032-037-038-041>044-048-051>054-059>061-300900-
CENTRAL ILLINOIS

CITY           SKY/WX    TMP DP  RH WIND       PRES   REMARKS
PONTIAC        CLEAR     36  32  86 W7        30.03S WCI  30
BLOOMINGTON    CLEAR     39  32  76 W8        30.05S WCI  33
DECATUR        CLEAR     44  31  60 NW8       30.07S
PEORIA         CLEAR     44  29  55 W6        30.06S
LACON*         CLEAR     35  28  75 CALM      30.04S
LINCOLN*       CLEAR     44  31  61 NW5       30.07S
SPRINGFIELD    CLEAR     37  30  75 W6        30.09S WCI  32
TAYLORVILLE    CLEAR     37  32  81 W6        30.09S WCI  33
$$

ILZ033-039-045-046-055>057-062-063-300900-
EAST-CENTRAL ILLINOIS

CITY           SKY/WX    TMP DP  RH WIND       PRES   REMARKS
CHAMPAIGN      CLEAR     34  32  92 SW8       30.04S WCI  27
DANVILLE*      CLEAR     36  34  92 W7        30.00S WCI  30
RANTOUL*       CLEAR     39  34  81 W8        30.03S WCI  34
MATTOON        CLEAR     40  34  79 W9        30.05F
PARIS*         CLEAR     36  35  97 W9        30.04F WCI  29
$$

ILZ079-100>102-300900-
SOUTHWEST ILLINOIS

CITY           SKY/WX    TMP DP  RH WIND       PRES   REMARKS
ALTON          CLEAR     41  37  86 CALM      30.11S
BELLEVILLE     CLEAR     39  39  99 NW5       30.10S
CAHOKIA*       CLEAR     46  39  76 W6        30.11S
SPARTA*        CLEAR     46  39  78 W3        30.11S
$$

ILZ064>066-069>071-074>076-080>082-084>086-088>090-092>094-300900-
SOUTH-CENTRAL ILLINOIS

CITY           SKY/WX    TMP DP  RH WIND       PRES   REMARKS
CARBONDALE     CLEAR     48  39  71 NW8       30.09F
CAIRO*         CLEAR     51  44  77 NW6       30.08S
EFFINGHAM*     CLEAR     41  35  79 W8        30.09S
MARION         CLEAR     52  41  66 CALM      30.09S
MT. VERNON     CLEAR     45  36  70 CALM      30.09S
CENTRALIA*     CLEAR     42  36  80 W6        30.09S
SALEM*         CLEAR     45  39  81 W6        30.10S
METROPOLIS*    CLEAR     51  45  80 NW6       30.06S
$$

ILZ067-068-072-073-078-083-087-091-300900-
SOUTHEAST ILLINOIS

CITY           SKY/WX    TMP DP  RH WIND       PRES   REMARKS
LAWRENCEVILLE  CLEAR     44  39  82 NW10      30.05S
FLORA*         CLEAR     47  38  72 NW9       30.08S
FAIRFIELD*     CLEAR     47  40  76 W6        30.06F
HARRISBURG*    CLEAR     48  42  80 NW8       30.09R
ROBINSON*      CLEAR     43  39  86 W10       30.06S
CARMI*         CLEAR     46  39  77 NW10      30.06S
$$

ABBREVIATIONS USED IN REMARKS
   TC - TEMPERATURE IN CELSIUS
  WCI - WIND CHILL INDEX
   HX - HEAT INDEX
  VSB - VISIBILITY
$$




USA.gov is the U.S. government's official web portal to all federal, state and local government web resources and services.